Pascagoula, MS

2:34 AM CDT on March 28, 2017 (GMT -0500)
Lott International

Weather History for KPQL - June, 2013

Change the Weather History Date:

Sunday, June 30, 2013

  Actual Average Record
Temperature  
Mean Temperature 82 °F -  
Max Temperature 93 °F 89 °F 99 °F (1978)
Min Temperature 72 °F 73 °F 62 °F (2006)
Cooling Degree Days 16    
Growing Degree Days 32 (Base 50)    
Moisture  
Dew Point 68 °F    
Average Humidity 68    
Maximum Humidity 93    
Minimum Humidity 34    
Precipitation  
Precipitation 0.00 in - - ()
Sea Level Pressure  
Sea Level Pressure 29.75 in    
Wind  
Wind Speed 2 mph (NNW)    
Max Wind Speed 8 mph    
Max Gust Speed -    
Visibility 10 miles    
Events      
Averages and records for this station are not official NWS values.
T = Trace of Precipitation, MM = Missing Value Source: NWS Daily Summary

Daily Weather History Graph

Daily Weather History Graph

Search for Another Location

Airport or City:

Trip Planner

Search our weather history database for the weather conditions in past years. The results will help you decide how hot, cold, wet, or windy it might be!

Date:

Astronomy

Jun. 30, 2013 Rise Set
Actual Time 5:55 AM CDT 8:00 PM CDT
Civil Twilight 5:27 AM CDT 8:27 PM CDT
Nautical Twilight 4:54 AM CDT 9:01 PM CDT
Astronomical Twilight 4:18 AM CDT 9:37 PM CDT
Moon 12:33 AM CDT (6/30) 1:32 PM CDT (6/30)
Length of Visible Light 15h 00m
Length of Day
14h 05m
Last Quarter, 45% of the Moon is Illuminated
Jun 30
Last Quarter
Jul 8
New
Jul 15
First Quarter
Jul 22
Full
Jul 29
Last Quarter

Hourly Weather History & Observations

Time (CDT) Temp. Heat Index Dew Point Humidity Pressure Visibility Wind Dir Wind Speed Gust Speed Precip Events Conditions
12:27 AM 75.2 °F - 71.6 °F 89% 29.75 in 10.0 mi Calm Calm - N/A   Mostly Cloudy
12:34 AM 75.2 °F - 71.6 °F 89% 29.75 in 10.0 mi Calm Calm - N/A   Mostly Cloudy
12:53 AM 73.9 °F - 72.0 °F 93% 29.75 in 9.0 mi Calm Calm - N/A   Partly Cloudy
1:53 AM 73.9 °F - 71.1 °F 91% 29.74 in 9.0 mi Calm Calm - N/A   Scattered Clouds
2:53 AM 73.0 °F - 71.1 °F 93% 29.73 in 6.0 mi Calm Calm - N/A   Clear
3:53 AM 72.0 °F - 70.0 °F 93% 29.72 in 6.0 mi Calm Calm - N/A   Partly Cloudy
4:53 AM 72.0 °F - 70.0 °F 93% 29.73 in 9.0 mi Calm Calm - N/A   Clear
5:53 AM 73.0 °F - 70.0 °F 90% 29.74 in 10.0 mi Calm Calm - N/A   Clear
6:53 AM 73.9 °F - 72.0 °F 93% 29.75 in 9.0 mi Calm Calm - N/A   Clear
7:53 AM 78.1 °F - 71.1 °F 79% 29.75 in 10.0 mi NW 3.5 mph - N/A   Clear
8:53 AM 81.0 °F 84.9 °F 71.1 °F 72% 29.75 in 10.0 mi NNW 3.5 mph - N/A   Clear
9:53 AM 84.0 °F 88.4 °F 70.0 °F 63% 29.76 in 10.0 mi North 5.8 mph - N/A   Clear
10:53 AM 84.9 °F 88.8 °F 69.1 °F 59% 29.76 in 10.0 mi Calm Calm - N/A   Clear
11:53 AM 88.0 °F 92.9 °F 70.0 °F 55% 29.75 in 10.0 mi North 5.8 mph - N/A   Clear
12:53 PM 89.1 °F 92.1 °F 66.9 °F 48% 29.74 in 10.0 mi Variable 4.6 mph - N/A   Clear
1:53 PM 90.0 °F 90.6 °F 63.0 °F 40% 29.74 in 10.0 mi NNW 4.6 mph - N/A   Clear
2:53 PM 91.0 °F 92.6 °F 64.0 °F 41% 29.73 in 10.0 mi North 8.1 mph - N/A   Clear
3:53 PM 91.9 °F 91.8 °F 61.0 °F 35% 29.73 in 10.0 mi NNW 5.8 mph - N/A   Clear
4:53 PM 91.9 °F 91.5 °F 60.1 °F 34% 29.72 in 10.0 mi NNW 4.6 mph - N/A   Clear
5:53 PM 89.1 °F 90.0 °F 63.0 °F 42% 29.72 in 10.0 mi Calm Calm - N/A   Clear
6:53 PM 87.1 °F 89.2 °F 66.0 °F 49% 29.73 in 10.0 mi Calm Calm - N/A   Clear
7:53 PM 80.1 °F 83.6 °F 71.1 °F 74% 29.74 in 10.0 mi Calm Calm - N/A   Partly Cloudy
8:53 PM 81.0 °F 83.3 °F 66.9 °F 62% 29.76 in 10.0 mi NNW 5.8 mph - N/A   Overcast
9:53 PM 80.1 °F 82.1 °F 66.0 °F 62% 29.78 in 10.0 mi NNW 5.8 mph - N/A   Overcast
10:53 PM 79.0 °F - 66.0 °F 64% 29.79 in 10.0 mi NNW 4.6 mph - N/A   Overcast
11:53 PM 77.0 °F - 66.0 °F 69% 29.79 in 10.0 mi NNW 4.6 mph - N/A   Mostly Cloudy